Precipitable_Water
1.20 1.35 1.23 1.06 0.83 0.79 0.80 0.89 0.96 0.98 1.01 1.08 1.09 1.14 1.18 1.23 1.29 1.29 1.31 1.25 1.27 1.25 1.25 1.24 1.22 1.24 1.25 1.21 1.21 1.21 1.28 1.32 1.37
1.08 1.32 1.19 1.07 0.87 0.83 0.86 0.93 1.00 1.03 1.07 1.11 1.12 1.16 1.20 1.22 1.22 1.22 1.22 1.21 1.16 1.09 1.08 1.08 1.08 1.07 1.05 1.04 1.05 1.02 0.99 1.02 1.07
1.06 1.24 1.15 1.09 0.98 0.87 0.90 0.97 1.03 1.04 1.08 1.10 1.09 1.13 1.15 1.12 1.10 1.12 1.09 1.02 0.99 0.95 0.94 0.92 0.93 0.93 0.92 0.89 0.87 0.88 0.87 0.86 0.86
1.06 1.19 1.13 1.09 1.03 0.88 0.93 0.95 1.01 1.06 1.08 1.08 1.07 1.09 1.07 1.03 1.01 0.98 0.97 0.95 0.92 0.88 0.86 0.83 0.82 0.82 0.81 0.81 0.80 0.80 0.80 0.80 0.79
1.03 1.16 1.16 1.11 1.05 0.95 0.93 0.98 1.00 1.05 1.06 1.07 1.10 1.11 1.10 1.09 1.06 1.03 0.99 0.96 0.93 0.88 0.85 0.83 0.80 0.79 0.78 0.77 0.77 0.77 0.78 0.78 0.78
1.07 1.12 1.19 1.16 1.10 1.05 0.93 0.98 1.01 1.04 1.09 1.09 1.11 1.12 1.11 1.11 1.08 1.06 1.03 0.99 0.93 0.90 0.87 0.85 0.82 0.81 0.80 0.79 0.79 0.78 0.78 0.77 0.77
1.10 1.12 1.20 1.18 1.12 1.09 1.03 0.94 1.01 1.03 1.06 1.10 1.12 1.10 1.14 1.13 1.10 1.09 1.07 1.04 0.96 0.89 0.86 0.85 0.84 0.83 0.81 0.78 0.78 0.76 0.76 0.75 0.74
1.17 1.17 1.17 1.21 1.17 1.10 1.06 1.01 0.95 0.99 1.01 1.04 1.08 1.10 1.14 1.15 1.13 1.11 1.11 1.10 1.01 0.92 0.86 0.87 0.85 0.83 0.81 0.77 0.76 0.76 0.75 0.76 0.77
1.08 1.09 1.12 1.12 1.13 1.07 1.06 1.01 0.90 0.93 0.99 1.02 1.04 1.09 1.10 1.14 1.14 1.13 1.13 1.11 1.08 0.97 0.91 0.90 0.87 0.87 0.83 0.80 0.79 0.78 0.78 0.78 0.78
1.07 1.07 1.07 1.08 1.11 1.06 1.03 1.00 0.93 0.90 0.93 0.97 1.01 1.04 1.06 1.10 1.14 1.15 1.16 1.13 1.11 1.06 0.97 0.95 0.92 0.90 0.87 0.84 0.84 0.85 0.84 0.82 0.81
1.08 1.09 1.08 1.05 1.07 1.04 1.02 1.00 0.95 0.89 0.95 1.00 1.02 1.02 1.03 1.04 1.11 1.13 1.15 1.15 1.13 1.10 1.07 0.99 0.98 0.95 0.91 0.90 0.89 0.88 0.87 0.87 0.86
1.14 1.16 1.12 1.05 1.07 1.02 1.02 0.99 0.99 0.91 0.97 0.99 1.03 1.03 1.03 1.01 1.05 1.09 1.12 1.15 1.15 1.16 1.17 1.10 1.05 1.01 0.97 0.95 0.94 0.93 0.89 0.85 0.84
1.19 1.12 1.09 1.07 1.05 1.03 1.00 0.95 0.93 0.93 0.92 0.98 1.05 1.08 1.04 1.03 1.06 1.08 1.10 1.11 1.13 1.17 1.20 1.21 1.14 1.08 1.05 1.02 1.00 0.97 0.94 0.89 0.86
1.25 1.19 1.13 1.09 1.00 0.98 0.96 0.95 0.96 0.95 0.98 1.02 1.06 1.08 1.03 1.02 1.04 1.06 1.08 1.10 1.11 1.13 1.17 1.20 1.20 1.15 1.11 1.11 1.11 1.06 1.00 0.96 0.88
1.16 1.09 1.04 1.05 0.97 0.95 0.97 0.97 1.00 0.98 0.98 0.99 1.01 1.06 1.05 1.03 1.00 1.02 1.07 1.08 1.09 1.11 1.14 1.18 1.20 1.19 1.16 1.11 1.13 1.14 1.10 1.02 0.94
1.13 1.07 1.06 1.07 1.01 0.99 0.99 0.98 0.97 0.96 1.04 0.97 0.95 0.99 1.04 1.04 1.04 1.04 1.05 1.10 1.13 1.14 1.14 1.16 1.18 1.17 1.17 1.14 1.13 1.10 1.12 1.12 1.05
1.16 1.11 1.10 1.12 1.10 1.07 1.04 1.06 1.01 1.01 1.04 0.91 0.91 0.83 0.91 0.96 1.02 1.03 1.04 1.05 1.11 1.13 1.17 1.18 1.18 1.17 1.17 1.17 1.15 1.11 1.10 1.10 1.08
1.25 1.25 1.25 1.25 1.21 1.09 1.14 1.14 1.08 0.96 1.02 1.03 0.95 0.81 0.73 0.83 0.93 0.95 1.02 1.02 1.03 1.06 1.09 1.13 1.15 1.16 1.16 1.16 1.14 1.13 1.13 1.17 1.15
1.44 1.41 1.38 1.35 1.29 1.21 1.17 1.19 1.12 1.07 0.99 1.06 1.04 1.03 0.97 0.85 0.82 0.95 0.97 1.02 1.03 1.04 1.06 1.07 1.10 1.11 1.11 1.10 1.10 1.11 1.15 1.10 1.15
1.53 1.48 1.40 1.30 1.25 1.21 1.18 1.15 1.13 1.13 1.05 1.01 0.98 0.97 0.96 0.97 0.89 0.81 0.91 0.98 1.00 1.01 1.04 1.07 1.03 1.06 1.08 1.09 1.07 1.08 1.08 1.13 1.13
Wind_Speed
3 3 3 3 3 3 4 4 4 3 4 4 4 4 4 5 6 6 6 7 8 8 7 8 8 8 8 9 9 9 8 8 8
4 4 3 2 3 3 3 3 3 3 3 4 4 4 4 5 5 6 7 8 8 8 8 8 9 9 9 9 9 9 9 9 9
4 4 3 2 2 2 2 2 1 2 2 3 4 3 4 5 6 6 7 8 8 8 8 9 9 9 9 9 9 9 9 9 9
4 4 3 2 1 1 1 0 0 1 2 3 3 3 4 5 6 7 8 8 8 8 8 9 9 9 9 9 9 9 9 9 9
4 4 3 2 1 1 1 1 1 2 2 3 3 3 4 6 7 7 8 8 8 8 8 9 9 9 10 10 10 9 9 9 9
4 5 4 3 3 3 3 3 3 3 3 4 4 5 6 7 7 8 8 8 9 9 9 9 9 10 10 10 10 9 9 9 9
5 5 5 5 4 5 5 5 5 6 6 6 6 7 8 8 8 9 9 9 9 10 10 10 10 10 10 10 10 9 9 9 9
6 6 7 6 6 6 7 7 8 8 8 9 9 10 10 10 10 10 10 11 11 11 11 11 11 11 11 11 10 10 10 10 10
9 9 9 9 9 9 9 10 10 11 11 11 12 12 12 13 12 12 12 13 13 13 13 13 13 13 12 12 12 11 11 11 11
13 12 12 12 12 12 12 12 13 13 14 14 14 15 15 16 15 15 15 15 15 15 15 15 15 14 14 14 13 13 13 13 13
15 15 15 15 15 15 15 15 15 16 16 16 17 18 18 18 18 18 18 18 18 18 18 18 17 17 17 16 16 16 16 15 15
18 17 17 17 17 17 17 17 17 18 18 19 20 20 20 21 21 21 21 21 21 21 21 21 20 20 20 19 19 19 19 18 18
19 19 18 18 18 18 18 18 19 19 20 21 21 22 22 22 23 24 24 24 24 24 24 24 23 23 23 23 23 23 22 22 21
20 20 20 19 19 19 19 19 20 21 22 23 24 24 24 24 25 26 26 27 27 27 27 27 27 26 26 26 26 26 26 25 25
22 22 21 20 20 20 21 21 22 23 24 24 25 25 25 26 26 27 28 28 29 29 29 29 29 29 29 29 29 29 29 29 28
24 23 23 22 23 23 23 23 24 24 24 25 26 26 27 27 27 28 28 28 29 30 30 31 31 31 32 32 32 32 32 32 32
26 25 25 25 25 25 25 26 26 26 26 25 26 26 26 28 29 29 29 29 30 31 32 32 33 33 34 34 35 34 34 34 33
29 28 28 28 28 28 28 28 28 28 28 29 27 26 26 26 27 27 29 31 31 31 32 33 35 36 36 36 36 36 35 32 34
31 31 31 31 31 31 30 31 31 31 31 30 32 32 31 30 30 29 29 30 32 34 34 35 36 37 38 38 38 38 39 40 38
33 33 32 32 33 33 34 34 34 34 34 33 33 34 34 34 33 34 33 33 33 34 35 36 38 39 40 41 41 41 42 39 40
Wind_Direction
157 151 131 98 88 93 99 100 90 73 55 45 45 37 36 39 34 40 22 14 9 8 3 359 355 353 352 351 350 351 355 358 1
168 161 152 120 101 103 104 102 89 70 50 45 38 40 41 34 22 12 1 355 351 349 348 345 343 341 341 340 338 337 335 332 331
170 168 161 148 125 119 116 113 90 51 36 32 28 31 21 7 359 352 350 349 348 346 345 343 342 340 339 338 338 337 335 333 333
174 174 175 169 159 150 145 149 111 5 4 4 3 3 0 358 354 350 348 347 345 342 340 340 339 339 338 338 337 335 334 333 333
183 187 192 195 207 237 249 266 281 299 324 336 340 339 340 341 342 342 342 342 340 338 338 338 339 339 337 336 334 333 332 332 332
205 208 214 226 245 262 270 274 282 284 293 309 317 316 318 323 328 331 332 333 333 332 332 333 334 334 334 332 331 331 330 329 328
219 222 230 243 257 269 275 276 278 278 281 290 298 305 304 308 315 318 322 322 323 323 323 323 324 326 327 327 327 327 325 323 322
232 235 242 252 263 271 275 278 277 278 279 284 290 296 295 297 302 307 310 312 312 313 313 313 314 315 317 318 318 319 319 318 317
245 248 252 257 264 270 276 280 279 278 278 281 285 289 292 292 294 298 299 303 304 304 305 305 306 307 308 308 309 310 310 309 309
249 253 257 261 266 270 274 278 280 279 279 280 282 285 288 288 287 290 292 295 297 298 298 298 299 300 300 300 300 301 302 301 301
250 255 259 262 267 270 273 277 279 279 279 280 282 284 285 285 284 286 287 290 292 293 293 292 293 293 293 293 293 294 295 295 295
250 256 260 261 267 271 273 277 279 279 279 280 282 283 284 283 282 283 284 286 287 288 289 288 288 289 288 288 288 289 289 289 290
251 255 258 262 267 271 275 277 279 280 280 281 283 283 284 283 282 282 283 284 284 285 286 286 285 285 285 285 284 285 285 286 286
251 254 258 262 266 271 275 278 279 281 281 282 283 283 284 283 283 282 282 283 283 283 284 284 284 283 283 283 282 282 283 283 283
251 254 257 261 267 271 275 278 280 282 283 284 284 283 284 284 284 284 284 283 282 282 282 283 283 282 282 281 281 280 281 281 281
250 255 258 261 267 271 275 278 279 281 283 285 285 284 284 284 284 284 284 284 283 282 282 282 282 281 281 281 280 280 279 279 279
252 256 260 263 267 271 274 275 278 280 281 284 286 288 288 286 285 285 284 284 284 283 283 282 282 282 281 281 279 280 280 279 279
255 257 260 264 267 271 273 274 275 279 281 280 283 287 286 290 290 289 286 285 285 285 285 284 283 282 281 281 280 279 280 277 283
256 259 261 265 268 270 273 275 277 278 279 280 279 281 285 286 289 288 288 288 287 287 287 286 285 284 282 281 279 279 278 278 280
258 260 262 265 268 271 273 275 276 277 278 279 281 281 281 283 283 287 287 288 289 289 288 288 287 286 284 280 279 280 278 280 276